Presure
136 127 129 140 143 107 143 144 145 139 144 134 90 144 120 154 156 145 94 99 143 131 92 105 100 124 90 85 91 86 89 86 88 112 81 82 83 82 81 85 90 83 81 84 156 102 168 165 164
131 144 147 169 140 140 141 138 143 95 147 147 117 92 151 126 151 90 165 94 104 142 92 99 163 96 92 118 83 85 87 86 83 85 77 78 78 77 89 84 73 76 83 80 82 86 91 93 132
136 158 152 144 141 145 135 142 144 142 130 145 106 110 137 144 99 128 99 144 103 102 94 185 91 92 110 103 84 79 82 83 84 84 83 87 81 83 83 82 83 89 90 86 83 84 77 83 96
150 134 139 115 153 144 149 141 139 144 119 104 147 99 160 142 100 102 165 91 106 92 156 111 88 167 101 85 87 84 82 79 137 90 85 76 86 90 83 86 82 83 92 87 94 99 90 86 80
128 144 143 148 151 136 141 130 96 134 119 102 140 109 152 148 118 129 109 101 84 152 160 97 89 82 79 79 76 86 89 82 88 79 77 83 91 93 85 76 87 89 89 94 96 97 198 97 98
146 137 143 136 147 157 157 157 96 139 147 149 145 133 141 187 176 149 121 97 87 91 184 83 132 83 94 95 86 91 88 78 120 80 82 72 94 88 83 83 88 89 89 89 96 128 218 97 130
124 172 169 121 144 148 155 146 143 140 143 147 161 153 132 178 176 170 162 108 84 169 82 85 102 123 85 86 81 83 79 83 82 88 83 92 85 83 71 89 94 80 88 132 217 102 196 205 209
163 140 96 96 140 136 153 169 177 169 175 188 144 173 195 87 79 186 172 186 75 146 89 182 88 80 83 84 81 81 74 84 86 81 96 87 92 87 95 91 90 89 91 136 214 206 205 200 199
166 156 106 184 175 164 166 150 158 184 185 187 178 127 131 178 142 88 80 82 151 161 129 113 87 87 94 89 72 89 94 80 90 88 88 91 91 91 95 95 91 93 104 206 198 210 206 200 199
149 100 172 149 145 147 144 194 166 170 180 129 195 187 173 119 91 160 96 99 131 177 183 145 83 86 85 80 130 96 83 79 111 80 95 153 90 94 93 90 94 188 213 199 195 201 194 190 193
124 150 181 159 163 184 160 190 149 182 190 186 193 170 175 160 173 101 101 98 168 69 96 76 86 86 92 89 165 179 85 79 175 93 90 94 90 97 93 93 150 213 209 204 192 204 192 182 192
131 184 174 161 176 181 189 192 178 197 187 188 180 80 159 170 167 166 86 160 94 93 144 158 75 78 206 97 89 112 80 81 95 95 90 94 96 98 96 142 213 217 208 191 204 182 187 197 194
176 179 174 180 181 188 192 182 193 191 189 181 171 113 138 90 160 138 143 86 79 146 87 182 89 95 209 212 82 96 95 133 192 128 97 95 204 118 238 234 217 203 189 190 194 193 194 183 185
181 184 129 179 176 140 100 190 191 187 180 171 172 153 171 169 166 103 147 168 70 91 89 86 122 85 100 156 104 94 94 92 145 97 96 95 96 219 207 217 206 184 193 183 199 204 198 188 173
115 181 185 170 172 178 180 183 180 179 177 171 160 162 164 157 167 77 88 159 106 129 164 97 83 134 82 212 173 141 92 103 131 198 96 261 189 181 200 196 197 201 194 191 194 197 181 173 190
179 171 175 174 173 104 127 179 171 169 93 69 170 154 164 105 73 69 83 84 89 132 80 84 90 111 175 122 96 111 159 100 141 117 204 207 216 182 193 178 167 185 194 195 196 195 167 198 199
158 162 94 161 175 168 102 166 123 146 159 73 163 79 157 78 117 140 88 90 87 150 87 171 185 130 157 161 91 91 95 97 163 193 199 196 217 214 190 194 192 194 190 186 185 182 185 174 170
163 163 123 168 169 165 161 152 159 97 78 67 75 131 77 145 86 106 106 142 85 156 114 181 100 91 133 93 94 97 146 185 190 199 190 200 193 196 209 191 186 170 171 177 180 182 159 177 178
171 92 90 90 172 162 152 166 81 84 124 77 70 82 165 89 143 84 89 95 98 89 178 169 155 95 96 97 165 182 181 182 190 195 193 209 232 186 186 182 172 176 180 172 170 171 174 161 179
73 166 92 82 66 146 172 118 132 143 87 102 111 109 141 167 141 151 139 99 169 95 94 90 97 97 155 159 163 171 186 195 195 199 198 219 206 178 162 160 155 169 157 172 172 182 196 182 164
87 117 142 109 134 87 97 77 77 75 88 152 159 169 170 88 120 94 96 95 92 91 140 186 193 181 197 163 171 185 183 190 199 203 192 159 152 159 151 150 147 175 180 175 182 184 187 187 167
85 91 84 81 75 87 93 91 93 95 84 73 88 89 90 89 138 87 129 106 169 186 187 193 205 231 187 179 178 193 189 198 166 199 209 144 155 165 175 179 152 139 142 173 158 136 136 191 184
88 182 125 94 95 98 91 85 89 87 93 155 95 156 94 95 98 162 178 185 179 182 193 188 190 234 218 175 187 190 191 202 189 142 163 138 180 151 186 154 134 131 128 134 127 132 133 220 131
152 151 151 149 160 165 167 165 162 166 119 154 120 168 165 161 172 179 182 175 183 192 192 214 228 215 175 185 191 195 182 146 161 140 125 128 129 130 133 154 128 131 135 135 140 168 138 204 198
169 162 163 158 164 170 169 170 172 169 169 170 158 169 161 171 173 182 182 187 192 198 226 217 219 180 191 195 168 137 129 125 138 139 134 135 136 195 145 191 192 196 154 216 145 143 179 218 195
123 180 176 170 164 158 161 166 169 166 159 164 168 171 171 174 182 185 189 194 204 217 216 174 175 192 190 138 126 128 133 132 135 139 150 128 132 171 135 136 136 212 157 219 220 180 176 225 222
168 167 167 164 166 166 160 151 159 166 161 169 170 172 178 181 184 191 198 216 213 219 143 181 135 134 131 130 128 137 136 128 130 132 144 172 153 165 184 169 153 204 212 183 181 227 199 238 212
174 171 169 172 171 171 163 156 160 163 168 173 179 180 182 189 194 210 211 219 182 166 140 129 134 134 128 131 132 129 128 128 132 150 139 143 173 135 182 175 207 212 212 172 234 194 221 225 221
179 180 182 181 179 178 173 167 169 174 174 180 186 188 191 234 217 215 227 156 152 126 132 135 134 132 135 140 129 127 128 173 143 168 135 133 210 172 212 178 165 209 215 195 209 232 174 223 231
183 182 184 185 180 178 177 169 171 179 186 188 190 219 202 231 146 132 135 131 131 135 136 119 131 124 124 125 169 178 137 119 140 170 159 135 150 224 214 167 218 228 218 222 183 229 221 224 215
Wind_Speed
49 44 45 49 47 25 40 39 40 35 41 33 8 44 26 38 33 31 6 7 30 27 12 9 6 12 9 7 3 2 2 4 6 10 10 12 14 15 16 19 20 20 23 23 40 24 46 47 47
50 52 53 48 48 46 43 41 42 17 39 41 26 10 47 27 38 11 39 11 17 33 15 4 38 4 9 15 4 2 1 3 3 8 10 12 13 16 19 18 15 18 23 20 25 28 31 30 36
52 56 55 53 52 51 40 44 43 41 33 42 20 20 40 40 16 27 12 31 14 14 13 41 15 13 12 9 4 3 3 6 7 9 10 14 14 17 20 20 21 30 32 28 26 27 23 28 32
58 54 52 33 57 53 49 46 43 43 28 22 45 16 49 42 15 24 42 14 23 20 31 21 15 42 8 4 3 3 5 7 30 14 14 13 20 23 23 27 26 28 37 27 39 36 33 30 23
49 56 54 55 56 48 48 40 14 39 29 22 45 20 46 48 26 30 19 16 16 40 43 14 13 7 9 7 7 8 10 10 14 12 15 20 24 24 25 23 33 36 37 41 43 43 26 41 42
60 54 55 55 56 58 56 52 16 39 46 45 48 40 46 36 42 43 22 17 16 19 39 9 24 9 13 14 11 14 16 13 23 15 19 19 25 24 28 31 37 39 42 43 48 44 24 47 41
52 59 58 38 59 59 57 51 48 45 47 42 52 51 27 28 41 38 31 23 13 38 11 13 19 24 14 12 13 15 16 17 17 23 22 30 27 27 25 38 42 34 44 39 24 52 27 26 21
62 60 22 21 56 53 48 49 51 51 47 38 51 41 27 21 15 36 46 39 8 26 18 40 16 15 14 15 16 18 18 19 23 24 33 29 34 34 40 42 42 45 51 43 23 24 24 27 26
67 64 34 52 53 58 57 53 54 46 43 38 42 23 21 36 28 23 12 11 31 37 25 20 17 17 22 21 17 25 29 23 30 32 33 36 39 41 45 47 47 51 56 26 29 22 24 23 22
56 30 44 44 43 42 44 48 54 52 44 30 32 32 42 24 19 34 21 21 27 44 44 29 14 20 23 22 30 32 26 28 36 32 41 41 42 46 48 50 56 32 24 30 29 25 25 27 26
51 59 56 58 53 49 56 48 53 45 39 38 32 43 40 36 38 28 23 23 48 13 19 14 23 24 31 31 35 41 29 32 43 40 42 45 45 53 52 57 47 29 25 28 32 27 27 29 27
58 59 55 52 49 50 49 46 50 39 40 36 37 18 38 41 46 47 21 43 18 22 40 44 20 23 49 28 31 41 36 37 42 45 44 50 53 58 57 51 34 30 29 32 30 34 34 29 30
66 57 55 51 48 48 46 42 41 39 37 39 43 31 34 24 46 38 42 22 20 39 26 50 31 33 52 50 36 39 44 47 46 48 55 55 45 54 38 37 35 31 32 33 35 35 34 34 33
67 58 42 50 49 34 21 42 41 38 39 44 43 38 44 45 48 30 44 51 16 26 32 30 37 29 38 42 43 45 45 47 49 54 57 60 62 40 33 33 31 32 35 34 35 36 36 36 37
42 54 53 53 50 48 45 44 43 38 42 45 50 50 48 47 49 21 30 50 32 41 44 37 32 44 40 55 44 47 49 50 50 48 60 39 35 35 34 31 30 33 35 37 36 36 37 39 39
60 54 55 54 51 37 34 45 44 45 27 13 47 45 49 33 22 23 30 31 33 45 35 37 44 49 56 54 54 54 52 53 58 65 43 41 40 38 38 38 37 35 37 40 40 42 39 44 43
55 57 30 56 53 53 28 47 38 44 51 20 50 28 53 26 39 51 35 37 37 53 38 52 58 56 55 46 57 57 62 67 57 49 46 43 42 41 40 40 41 42 39 39 41 41 43 37 37
65 61 45 56 54 54 51 50 52 31 28 24 27 45 27 53 34 43 44 52 38 60 51 63 54 56 59 60 61 66 59 56 54 50 48 47 44 43 44 44 43 39 40 43 45 46 37 45 45
63 23 32 32 58 56 52 55 32 34 42 28 28 35 57 39 44 38 47 49 50 50 66 50 57 62 64 68 53 56 57 57 56 54 52 49 47 46 45 45 45 46 49 45 44 45 46 41 49
25 65 32 30 20 50 54 43 49 49 38 42 47 42 51 61 56 60 49 43 65 59 60 59 64 66 61 49 52 56 62 59 58 59 57 54 50 47 43 43 43 48 45 51 51 56 62 56 48
33 44 55 45 47 38 42 38 35 30 45 54 58 59 60 51 59 59 60 61 62 60 61 74 76 54 57 55 58 63 60 62 61 60 51 43 43 48 45 46 47 57 60 57 62 64 66 66 54
36 46 37 37 37 46 51 51 52 50 49 30 51 53 58 57 57 54 66 61 67 75 75 77 71 64 59 61 63 65 65 66 49 62 63 46 48 54 61 63 54 53 53 61 59 54 54 76 73
37 69 55 57 59 57 53 52 52 52 59 66 59 60 64 64 67 67 73 76 73 74 78 72 58 65 69 63 67 67 68 70 64 47 54 51 65 56 70 57 55 56 56 57 55 57 59 83 55
62 62 62 58 61 58 63 62 63 70 68 67 69 71 71 69 72 75 76 73 77 80 78 77 69 69 65 69 70 71 64 48 57 52 51 54 55 57 59 65 59 62 64 65 66 71 62 75 74
65 66 65 62 61 60 67 63 63 70 73 73 67 71 67 72 74 78 78 79 80 81 74 78 70 67 70 72 59 49 49 51 56 57 59 62 64 74 67 78 79 79 73 85 73 73 77 87 80
49 61 63 63 63 63 64 62 67 70 72 75 74 72 72 74 78 79 80 82 84 80 79 62 63 72 71 49 50 54 57 58 61 64 68 64 68 78 72 73 75 88 77 91 91 81 79 94 92
62 62 66 64 64 65 66 68 72 74 71 73 73 76 78 79 78 80 84 83 81 78 47 68 50 50 52 55 56 61 63 62 65 68 71 78 75 79 92 87 84 93 94 82 83 100 105 106 102
62 67 66 66 66 67 69 68 72 73 73 77 79 80 78 79 81 84 82 79 61 61 52 51 53 55 58 61 63 64 65 67 71 78 76 79 91 82 90 87 99 97 98 89 107 104 102 105 104
64 64 66 68 67 70 69 71 73 77 78 81 80 79 81 75 78 79 75 56 58 51 54 56 58 61 66 68 67 67 69 88 77 88 79 79 103 95 104 97 94 104 115 96 100 109 102 110 113
65 67 70 72 70 67 67 69 77 82 81 80 82 78 80 73 49 48 51 52 55 58 60 54 63 60 65 67 86 94 79 63 80 88 87 84 85 111 107 91 113 119 110 119 101 128 120 124 124
Wind_Direction
241 241 243 249 251 245 252 254 254 254 257 261 222 263 259 269 268 261 203 246 270 270 173 277 174 270 164 156 156 103 52 38 28 315 1 358 359 355 349 349 344 340 338 337 265 312 253 253 255
236 245 247 246 250 248 250 250 256 230 261 265 254 233 275 266 273 187 280 181 267 268 173 243 282 223 173 263 165 174 21 8 359 329 336 343 339 337 346 335 341 334 326 326 322 325 324 320 280
242 238 244 248 249 249 242 253 256 257 256 263 240 253 273 277 249 270 257 270 262 203 165 288 182 182 271 268 181 280 321 335 331 323 319 326 332 325 327 320 320 329 324 314 313 311 314 315 307
237 241 244 239 250 252 254 251 252 258 253 243 267 247 277 275 245 239 287 177 261 178 276 264 189 290 258 203 247 290 305 319 284 311 327 316 326 323 322 328 317 316 320 307 314 304 303 296 301
235 242 245 247 248 248 251 246 227 254 252 242 262 254 273 274 256 270 254 253 189 285 289 211 194 224 244 255 276 278 278 302 297 313 316 326 311 314 319 307 318 317 315 312 309 304 272 295 292
239 240 244 246 248 250 252 255 228 256 263 264 266 262 269 278 281 279 252 216 198 191 284 213 278 239 236 240 258 275 276 299 289 300 309 314 305 318 312 309 314 313 309 308 307 287 255 294 282
238 236 239 237 248 251 253 255 258 258 263 264 267 270 247 268 276 276 272 248 193 281 216 224 233 274 247 250 271 277 289 291 292 299 307 299 306 299 305 311 311 293 304 299 262 297 272 255 263
230 239 220 222 248 249 248 253 258 260 262 264 267 267 264 190 194 274 280 279 212 261 217 285 232 246 258 264 270 274 300 289 295 292 294 311 303 305 309 310 307 304 306 297 260 260 260 254 257
231 235 222 243 241 245 249 254 257 258 259 259 262 242 240 265 252 195 207 215 275 282 276 269 245 254 259 270 295 276 273 288 295 291 306 305 308 309 306 303 304 304 303 249 253 268 264 261 262
234 223 236 236 235 242 242 257 253 256 257 245 259 259 266 234 227 271 233 244 270 285 290 290 274 274 279 281 289 273 279 283 291 288 299 307 307 309 309 307 305 280 258 256 260 261 252 255 267
228 236 237 240 241 248 249 253 254 252 254 254 252 262 264 265 273 247 236 228 284 271 276 262 268 276 274 277 294 292 283 279 299 300 308 307 307 305 307 307 296 271 267 265 270 267 263 258 261
232 236 236 238 242 246 252 254 249 251 249 251 251 222 261 266 272 276 231 281 269 270 283 286 280 286 308 283 291 287 279 282 301 303 305 305 304 302 301 295 280 271 273 274 269 273 273 264 260
235 233 236 238 240 246 248 247 249 246 246 248 254 243 255 240 268 266 277 255 276 288 272 296 275 273 307 303 278 287 296 298 296 302 302 304 292 300 278 273 278 277 279 279 277 272 268 268 264
233 232 228 233 237 231 228 244 245 243 244 248 253 254 260 264 269 254 277 284 264 278 279 279 293 275 291 295 294 297 299 304 301 303 302 301 301 288 281 277 281 279 282 276 278 277 273 271 270
229 229 232 235 235 238 239 241 242 241 245 251 257 261 264 268 272 268 268 284 282 286 295 291 272 293 276 296 293 301 305 309 305 302 300 294 291 286 290 284 283 283 280 277 278 277 269 275 275
226 230 231 232 234 230 241 238 243 247 231 264 256 257 265 260 257 274 276 283 288 290 270 289 299 299 301 297 299 298 298 302 299 299 303 305 298 286 292 280 279 283 282 284 285 284 274 282 280
230 229 229 237 233 237 244 242 242 251 254 266 261 254 270 254 268 278 282 288 287 291 290 296 299 283 297 293 301 302 298 297 298 298 300 296 298 291 289 289 288 288 287 286 286 284 285 275 271
227 231 232 236 237 240 244 250 249 251 257 271 264 265 258 272 276 282 284 286 285 292 293 296 294 298 292 294 296 295 298 299 298 297 297 296 292 292 290 290 289 283 283 284 283 282 266 279 278
226 223 235 236 235 241 249 246 255 255 257 266 267 274 268 275 281 282 287 289 281 293 293 294 295 291 291 291 295 297 298 300 298 298 294 295 291 289 289 288 283 284 285 282 281 280 281 268 282
228 231 240 248 248 243 245 245 256 259 261 267 269 272 271 272 276 280 283 285 289 287 291 295 288 288 292 289 294 297 296 297 297 296 295 298 293 288 282 282 282 284 280 285 284 286 284 286 275
247 240 239 244 241 251 255 260 261 265 264 262 265 268 268 281 280 284 285 285 288 291 291 291 294 289 288 292 293 294 295 297 296 295 293 284 281 285 283 281 281 289 289 288 289 288 287 287 279
256 250 248 249 255 261 258 260 261 259 264 279 273 276 277 280 281 283 284 285 286 288 289 293 293 293 289 290 292 294 295 295 284 291 294 284 284 290 291 291 282 282 279 290 282 279 279 286 284
247 234 248 257 257 258 259 261 261 264 263 266 272 270 275 277 278 284 283 284 287 289 291 293 288 292 287 290 292 292 292 293 291 281 289 283 290 284 290 284 281 282 283 285 284 282 280 290 280
239 239 242 246 249 251 254 254 260 263 263 263 268 269 273 280 281 281 283 285 287 288 291 291 290 288 288 289 290 291 290 282 288 281 287 284 284 284 283 287 284 283 281 280 278 284 278 294 286
236 240 242 247 249 248 253 256 256 261 265 265 268 270 275 277 279 280 282 285 287 289 290 291 288 286 288 291 287 283 286 287 288 284 285 286 285 294 280 291 290 291 279 295 278 278 287 293 289
246 241 242 244 246 246 251 256 256 256 262 266 270 273 275 277 279 282 284 287 288 288 290 284 284 289 290 282 289 288 284 287 286 285 287 289 288 295 289 290 288 298 282 298 297 285 283 295 292
242 243 243 244 246 247 249 254 258 260 263 266 270 272 274 276 281 283 285 284 286 287 271 285 276 281 287 286 288 284 285 290 288 287 284 289 285 290 293 288 285 295 295 290 290 298 290 300 286
242 243 246 247 246 247 249 255 260 264 268 270 270 272 277 280 283 282 283 284 278 279 274 284 283 284 285 285 285 286 289 290 288 289 288 286 292 290 295 291 299 297 290 285 300 289 295 294 289
242 245 245 246 246 247 250 256 263 264 266 268 272 277 280 280 280 281 282 275 277 281 280 281 281 283 281 281 287 291 292 294 284 292 288 289 297 298 302 290 293 299 300 295 294 295 276 289 291
240 243 245 246 248 252 255 258 262 263 268 272 273 274 276 278 269 274 274 277 278 278 279 289 283 288 289 290 294 295 285 299 289 291 294 287 289 303 297 301 301 301 297 299 297 298 295 292 289